Regional Weather Roundup
Issued by NWS

Home | Current Version | Previous Version | Graphics & Text | Print | Product List | Glossary On
Versions: 1 2 3 4 5 6 7 8 9 10 11 12 13 14 15 16 17 18 19 20 21 22 23 24 25 26 27 28 29 30 31 32 33 34 35 36 37 38 39 40 41 42 43 44 45 46 47 48 49 50
000
ASUS43 KLOT 191509
RWRIL

ILLINOIS REGIONAL WEATHER ROUNDUP
NATIONAL WEATHER SERVICE CHICAGO/ROMEOVILLE IL
1000 AM CDT THU OCT 19 2017

NOTE: "FAIR" INDICATES FEW OR NO CLOUDS BELOW 12,000 FEET WITH NO
SIGNIFICANT WEATHER AND/OR OBSTRUCTIONS TO VISIBILITY.

* THESE STATIONS ARE NOT UNDER NWS QUALITY CONTROL. THEY ALSO MAY NOT
  REPORT WEATHER SUCH AS PRECIPITATION OR FOG.

ILZ001-002-007-009-015-016-024-191600-
NORTHWEST ILLINOIS

CITY           SKY/WX    TMP DP  RH WIND       PRES   REMARKS
MOLINE         SUNNY     60  45  57 E13       30.17R
STERLING*      SUNNY     59  45  59 E6          N/A
$$

ILZ003-004-008-010-011-017-018-191600-
NORTH CENTRAL ILLINOIS

CITY           SKY/WX    TMP DP  RH WIND       PRES   REMARKS
ROCKFORD       PTSUNNY   56  46  69 CALM      30.19R
FREEPORT*      SUNNY     59  35  40 E3        30.19R
DE KALB*       SUNNY     59  37  43 NE6       30.20R
PERU*          SUNNY     59  40  49 NE7       30.19R
$$

ILZ005-006-012>014-019>023-191600-
NORTHEAST ILLINOIS

CITY           SKY/WX    TMP DP  RH WIND       PRES   REMARKS
CHICAGO-OHARE  PTSUNNY   62  30  29 NE7       30.18R
CHICAGO-MIDWAY PTSUNNY   63  34  33 N6        30.18R
AURORA         SUNNY     58  45  62 CALM      30.19R
LANSING*       SUNNY     60  44  54 N6        30.19R
WAUKEGAN       SUNNY     60  33  36 N5        30.17R
DUPAGE AIRPORT SUNNY     61  37  41 N6        30.18R
WHEELING       SUNNY     62  34  35 N5        30.19R
MORRIS*        SUNNY     62  38  41 NE3       30.18R
ROMEOVILLE*    SUNNY     60  38  43 NE6       30.18S
NORTHERLY ISL    N/A     62  25  24 NW7         N/A
$$

LMZ740>746-191600-
SOUTHERN LAKE MICHIGAN

STATION/POSITION SKY/WX   TEMP    WIND        PRES    VSBY  WAVE
                          AIR SEA DIR/SP/G                  HT/PER
                          (F)     (DEG/KT/KT) (MB)    (MI)  (FT/S)
SOUTHERN BUOY              58 60  320/ 10/ 12 1021.3R         3/ 4
WILMETTE HARBOR            57 57  280/  4/  6   N/A           1
HARRISON CRIB              59     320/  6/  7   N/A
BURNHAM HARBOR             63     350/  5/  9   N/A
CALUMET HARBOR             61     340/  7/ 11 1021.2R
BURNS HARBOR               57     280/  7/  9 1022.4R
MICHIGAN CITY              59     290/  9/  9   N/A
MICHIGAN CITY 6N           59 58  340/  6/  6   N/A           2/ 3
ST. JOSEPH                 60 58  350/  8/ 10 1021.6          3/ 4
$$

ILZ025>027-034>036-040-047-049-050-058-095>099-191600-
WEST-CENTRAL ILLINOIS

CITY           SKY/WX    TMP DP  RH WIND       PRES   REMARKS
QUINCY         SUNNY     62  49  62 SW7       30.16R
MACOMB*        SUNNY     60  49  68 CALM      30.19S
PITTSFIELD*    SUNNY     64  51  63 SW6       30.18R
$$

ILZ028>032-037-038-041>044-048-051>054-059>061-191600-
CENTRAL ILLINOIS

CITY           SKY/WX    TMP DP  RH WIND       PRES   REMARKS
PONTIAC        SUNNY     60  51  71 N6        30.20R
BLOOMINGTON    SUNNY     61  49  64 W8        30.20R
DECATUR        SUNNY     63  51  65 W7        30.19R
PEORIA         SUNNY     60  50  69 CALM      30.17S
LACON*         SUNNY     59  49  68 CALM      30.18R
LINCOLN*       SUNNY     62  51  68 CALM      30.19R
SPRINGFIELD    SUNNY     65  52  62 SW7       30.18R
TAYLORVILLE    NOT AVBL
$$

ILZ033-039-045-046-055>057-062-063-191600-
EAST-CENTRAL ILLINOIS

CITY           SKY/WX    TMP DP  RH WIND       PRES   REMARKS
CHAMPAIGN      SUNNY     62  50  64 MISG      30.20R
DANVILLE*      SUNNY     60  49  66 SW7       30.17S
RANTOUL*       SUNNY     63  53  70 W7        30.19R
MATTOON        SUNNY     61  52  72 SW6       30.20R
$$

ILZ079-100>102-191600-
SOUTHWEST ILLINOIS

CITY           SKY/WX    TMP DP  RH WIND       PRES   REMARKS
ALTON          SUNNY     63  54  72 SW9       30.20R
CAHOKIA*       SUNNY     66  49  54 SW6       30.20R
SPARTA*        SUNNY     64  51  61 SW5       30.24R
$$

ILZ064>066-069>071-074>076-080>082-084>086-088>090-092>094-191600-
SOUTH-CENTRAL ILLINOIS

CITY           SKY/WX    TMP DP  RH WIND       PRES   REMARKS
CARBONDALE     SUNNY     65  52  62 SW8       30.24R
CAIRO*         SUNNY     62  50  64 SW7       30.27R
EFFINGHAM*     SUNNY     63  52  67 SW9       30.22S
MARION         SUNNY     64  50  59 S12       30.25R
MT. VERNON     SUNNY     64  53  67 SW8       30.23R
CENTRALIA*     SUNNY     66  52  61 SW9       30.21S
SALEM*         SUNNY     67  50  54 SW9       30.21S
$$

ILZ067-068-072-073-078-083-087-091-191600-
SOUTHEAST ILLINOIS

CITY           SKY/WX    TMP DP  RH WIND       PRES   REMARKS
LAWRENCEVILLE  SUNNY     62  51  67 SW13      30.23R
HARRISBURG*    SUNNY     63  51  65 SW9       30.25R
ROBINSON*      SUNNY     62  50  64 SW8       30.23R
CARMI*         SUNNY     63  50  62 SW9       30.24S
$$

ABBREVIATIONS USED IN REMARKS
   TC - TEMPERATURE IN CELSIUS
  WCI - WIND CHILL INDEX
   HX - HEAT INDEX
  VSB - VISIBILITY
$$





USA.gov is the U.S. government's official web portal to all federal, state and local government web resources and services.